Stündliche Wetter Kyselivka

Heute, 18 Januar, Montag

Zeit Temperatur Niederschläge Wind Luftdruck Luftfeuchtigkeit
00:00 -18°C° 0.1 mm 2 m/S 742 mmHg 93%
01:00 -18°C° 0.1 mm 2 m/S 742 mmHg 94%
02:00 -18°C° 0 mm 2 m/S 742 mmHg 93%
03:00 -18°C° 0 mm 2 m/S 742 mmHg 93%
04:00 -19°C° 0 mm 3 m/S 742 mmHg 93%
05:00 -21°C° 0 mm 3 m/S 742 mmHg 94%
06:00 -21°C° 0 mm 3 m/S 742 mmHg 94%
07:00 -21°C° 0 mm 3 m/S 742 mmHg 94%
08:00 -19°C° 0 mm 2 m/S 743 mmHg 93%
09:00 -19°C° 0 mm 2 m/S 743 mmHg 91%
10:00 -19°C° 0 mm 2 m/S 743 mmHg 90%
11:00 -18°C° 0 mm 2 m/S 744 mmHg 88%
12:00 -18°C° 0 mm 2 m/S 744 mmHg 88%
13:00 -18°C° 0 mm 2 m/S 743 mmHg 88%
14:00 -18°C° 0 mm 2 m/S 743 mmHg 88%
15:00 -18°C° 0 mm 2 m/S 743 mmHg 90%
16:00 -19°C° 0 mm 2 m/S 744 mmHg 92%
17:00 -19°C° 0 mm 2 m/S 744 mmHg 94%
18:00 -20°C° 0 mm 2 m/S 744 mmHg 95%
19:00 -20°C° 0 mm 2 m/S 744 mmHg 96%
20:00 -20°C° 0 mm 2 m/S 744 mmHg 96%
21:00 -20°C° 0 mm 2 m/S 744 mmHg 96%
22:00 -20°C° 0 mm 2 m/S 744 mmHg 96%
23:00 -20°C° 0 mm 2 m/S 744 mmHg 96%

Morgen, 19 Januar, Dienstag

Zeit Temperatur Niederschläge Wind Luftdruck Luftfeuchtigkeit
00:00 -20°C° 0 mm 2 m/S 744 mmHg 96%
01:00 -20°C° 0 mm 2 m/S 744 mmHg 96%
02:00 -21°C° 0 mm 2 m/S 744 mmHg 96%
03:00 -21°C° 0 mm 2 m/S 744 mmHg 96%
04:00 -21°C° 0 mm 2 m/S 744 mmHg 96%
05:00 -21°C° 0 mm 2 m/S 744 mmHg 96%
06:00 -21°C° 0 mm 2 m/S 744 mmHg 96%
07:00 -21°C° 0 mm 2 m/S 744 mmHg 96%
08:00 -21°C° 0 mm 2 m/S 744 mmHg 97%
09:00 -20°C° 0 mm 2 m/S 744 mmHg 94%
10:00 -17°C° 0 mm 1 m/S 744 mmHg 92%
11:00 -16°C° 0 mm 1 m/S 744 mmHg 90%
12:00 -15°C° 0 mm 1 m/S 744 mmHg 89%
13:00 -15°C° 0 mm 1 m/S 744 mmHg 88%
14:00 -14°C° 0 mm 1 m/S 743 mmHg 87%
15:00 -15°C° 0 mm 1 m/S 743 mmHg 87%
16:00 -15°C° 0 mm 1 m/S 743 mmHg 88%
17:00 -16°C° 0 mm 1 m/S 743 mmHg 88%
18:00 -16°C° 0 mm 1 m/S 743 mmHg 88%
19:00 -18°C° 0 mm 2 m/S 743 mmHg 89%
20:00 -18°C° 0 mm 2 m/S 743 mmHg 89%
21:00 -18°C° 0 mm 2 m/S 743 mmHg 90%
22:00 -17°C° 0 mm 2 m/S 743 mmHg 91%
23:00 -18°C° 0 mm 3 m/S 743 mmHg 92%

übermorgen, 20 Januar, Mittwoch

Zeit Temperatur Niederschläge Wind Luftdruck Luftfeuchtigkeit
00:00 -17°C° 0 mm 3 m/S 742 mmHg 93%
01:00 -17°C° 0 mm 3 m/S 742 mmHg 94%
02:00 -16°C° 0 mm 3 m/S 742 mmHg 95%
03:00 -16°C° 0 mm 3 m/S 742 mmHg 95%
04:00 -15°C° 0 mm 3 m/S 742 mmHg 96%
05:00 -15°C° 0 mm 3 m/S 741 mmHg 96%
06:00 -15°C° 0 mm 3 m/S 741 mmHg 96%
07:00 -14°C° 0 mm 3 m/S 741 mmHg 95%
08:00 -14°C° 0 mm 3 m/S 741 mmHg 95%
09:00 -13°C° 0 mm 3 m/S 741 mmHg 94%
10:00 -12°C° 0 mm 4 m/S 742 mmHg 93%
11:00 -11°C° 0 mm 4 m/S 742 mmHg 92%
12:00 -10°C° 0 mm 4 m/S 741 mmHg 91%
13:00 -9°C° 0 mm 4 m/S 741 mmHg 91%
14:00 -9°C° 0 mm 4 m/S 741 mmHg 90%
15:00 -9°C° 0 mm 4 m/S 741 mmHg 91%
16:00 -9°C° 0 mm 4 m/S 741 mmHg 93%
17:00 -8°C° 0 mm 5 m/S 741 mmHg 94%
18:00 -8°C° 0.2 mm 5 m/S 741 mmHg 94%
19:00 -8°C° 0.2 mm 5 m/S 741 mmHg 95%
20:00 -8°C° 0.2 mm 5 m/S 741 mmHg 95%
21:00 -7°C° 0.1 mm 5 m/S 741 mmHg 95%
22:00 -7°C° 0.1 mm 5 m/S 741 mmHg 94%
23:00 -7°C° 0.1 mm 5 m/S 741 mmHg 94%

21 Januar, Donnerstag

Zeit Temperatur Niederschläge Wind Luftdruck Luftfeuchtigkeit
00:00 -6°C° 0 mm 5 m/S 741 mmHg 93%
01:00 -6°C° 0 mm 5 m/S 741 mmHg 92%
02:00 -6°C° 0 mm 5 m/S 741 mmHg 91%
03:00 -6°C° 0 mm 5 m/S 740 mmHg 90%
04:00 -6°C° 0 mm 5 m/S 740 mmHg 90%
05:00 -5°C° 0 mm 4 m/S 740 mmHg 89%
06:00 -5°C° 0 mm 4 m/S 740 mmHg 88%
07:00 -5°C° 0 mm 4 m/S 740 mmHg 88%
08:00 -7°C° 0 mm 4 m/S 740 mmHg 87%
09:00 -4°C° 0 mm 4 m/S 740 mmHg 86%
10:00 -4°C° 0 mm 5 m/S 740 mmHg 85%
11:00 -2°C° 0 mm 5 m/S 740 mmHg 84%
12:00 -2°C° 0 mm 5 m/S 740 mmHg 86%
13:00 -1°C° 0 mm 5 m/S 740 mmHg 87%
14:00 -1°C° 0 mm 5 m/S 740 mmHg 88%
15:00 -1°C° 0 mm 4 m/S 740 mmHg 88%
16:00 -2°C° 0 mm 4 m/S 740 mmHg 88%
17:00 -2°C° 0 mm 4 m/S 740 mmHg 87%
18:00 -2°C° 0 mm 4 m/S 740 mmHg 87%
19:00 -2°C° 0 mm 5 m/S 740 mmHg 86%
20:00 -2°C° 0 mm 5 m/S 740 mmHg 85%
21:00 -2°C° 0 mm 5 m/S 739 mmHg 85%
22:00 -2°C° 0 mm 5 m/S 739 mmHg 84%
23:00 -1°C° 0 mm 5 m/S 739 mmHg 83%

22 Januar, Freitag

Zeit Temperatur Niederschläge Wind Luftdruck Luftfeuchtigkeit
00:00 -1°C° 0 mm 5 m/S 739 mmHg 83%
01:00 -2°C° 0 mm 6 m/S 738 mmHg 82%
02:00 -2°C° 0 mm 6 m/S 738 mmHg 81%
03:00 -2°C° 0 mm 6 m/S 738 mmHg 81%
04:00 -2°C° 0 mm 6 m/S 737 mmHg 80%
05:00 -1°C° 0 mm 6 m/S 737 mmHg 80%
06:00 -1°C° 0 mm 6 m/S 737 mmHg 79%
07:00 0°C° 0 mm 5 m/S 737 mmHg 79%
08:00 0°C° 0 mm 5 m/S 737 mmHg 78%
09:00 0°C° 0 mm 5 m/S 737 mmHg 81%
10:00 0°C° 0 mm 5 m/S 737 mmHg 83%
11:00 0°C° 0 mm 5 m/S 737 mmHg 86%
12:00 0°C° 0 mm 5 m/S 736 mmHg 88%
13:00 0°C° 0 mm 4 m/S 736 mmHg 90%
14:00 0°C° 0 mm 4 m/S 736 mmHg 92%
15:00 0°C° 0 mm 4 m/S 736 mmHg 90%
16:00 0°C° 0 mm 5 m/S 735 mmHg 89%
17:00 0°C° 0 mm 5 m/S 735 mmHg 87%
18:00 -1°C° 0 mm 5 m/S 735 mmHg 86%
19:00 -1°C° 0 mm 5 m/S 735 mmHg 86%
20:00 -1°C° 0 mm 5 m/S 735 mmHg 85%
21:00 -1°C° 0 mm 5 m/S 735 mmHg 85%
22:00 -1°C° 0 mm 5 m/S 735 mmHg 86%
23:00 -2°C° 0 mm 4 m/S 734 mmHg 86%

23 Januar, Samstag

Zeit Temperatur Niederschläge Wind Luftdruck Luftfeuchtigkeit
00:00 -2°C° 0 mm 4 m/S 734 mmHg 86%
01:00 -2°C° 0 mm 4 m/S 734 mmHg 85%
02:00 -2°C° 0 mm 4 m/S 734 mmHg 85%
03:00 -2°C° 0 mm 4 m/S 734 mmHg 86%
04:00 -1°C° 0 mm 3 m/S 733 mmHg 87%
05:00 -1°C° 0 mm 3 m/S 733 mmHg 88%
06:00 -1°C° 0 mm 3 m/S 733 mmHg 89%
07:00 -2°C° 0 mm 3 m/S 733 mmHg 90%
08:00 -2°C° 0 mm 3 m/S 733 mmHg 90%
09:00 -1°C° 0 mm 3 m/S 733 mmHg 91%
10:00 -1°C° 0 mm 3 m/S 733 mmHg 92%
11:00 0°C° 0 mm 3 m/S 733 mmHg 93%
12:00 0°C° 0 mm 3 m/S 732 mmHg 95%
13:00 0°C° 0 mm 3 m/S 732 mmHg 97%
14:00 +1°C° 0 mm 2 m/S 732 mmHg 98%
15:00 0°C° 0.4 mm 3 m/S 732 mmHg 98%
16:00 0°C° 0.4 mm 3 m/S 732 mmHg 97%
17:00 0°C° 0.4 mm 3 m/S 732 mmHg 96%
18:00 0°C° 0.1 mm 3 m/S 732 mmHg 95%
19:00 0°C° 0.1 mm 3 m/S 732 mmHg 94%
20:00 0°C° 0.1 mm 3 m/S 732 mmHg 93%
21:00 0°C° 0 mm 3 m/S 732 mmHg 94%
22:00 -1°C° 0 mm 3 m/S 732 mmHg 94%
23:00 -1°C° 0 mm 3 m/S 733 mmHg 94%
Mehr zeigen

Wir brauchen deine Erlaubnis

Meteoprog und unser Service Anbieter werden persönliche Daten aufbewahren, so wie Cookies, Geräte Bezeichnung oder ähnliche Technologien von deinem Gerät und Prozess, so wie Persönliche Daten Inhalte und Werbungen, genauso wie social Media und den Verkehr zu analysieren.

  • Aufbewahrung und/oder Zugang zu deiner Geräte Informationen.

    Cookies, Geräte Bezeichnung oder andere Informationen, können aufbewahrt oder Zugang zu deinem Gerät erhalten, für den Grund, der oben angegeben wird.

  • Personalisierte Werbung und Inhalte, Messungen, Einblick in das Publikum und Produkt Entwicklung.

    Werbungen und Inhalte können personalisiert werden, basierend auf ein Profil. Mehr Daten können besser personalisierte Werbungen und Inhalte hinzufügen. Werbung und Inhalte können gezeigt und gemessen werden. Einblicke über das Publikum, welche die Werbung gesehen haben und den Inhalt, können abgeleitet werden. So wie Daten können genutzt werden, um es zu verbessern oder die Benutzer Erfahrung zu verbessern das System und die Software.

Wenn du “Ich stimme zu” klickst, erlaubst du uns, die Cookies zu benutzen die Geräte Bezeichnung, den Web oder ähnliche Technologien zu benutzen. Deine Settings, können in deinem Gerät bei deinem Browser geändert werden.

Für den bestimmten Zweck, berechtigten Interessen beruhen darauf, mehr als auf den Inhalt. Du kannst mehr darüber in unseren Privaten und Cookie Politik lesen.